This is the latest recevied weather packets stored in our database for station/object WH6VH. If no packets are shown the sender has not sent any weather packets the latest 10 day(s).
| Time | Temp. | Humidity | Pressure | Rain* | Wind** | Luminosity | Snow |
|---|---|---|---|---|---|---|---|
| 1778032505 | 0.56° C | 94% | 1016.4 hPa | 0 mm | - | - | - |
| 1778031605 | 0.56° C | 94% | 1016.1 hPa | 0 mm | - | - | - |
| 1778027406 | 0.56° C | 93% | 1014.9 hPa | 0 mm | - | - | - |
| 1778025006 | 1.11° C | 92% | 1014.1 hPa | 0.76 mm | - | - | - |
| 1778022606 | 2.78° C | 91% | 1014.1 hPa | 1.27 mm | - | - | - |
| 1778022004 | 3.33° C | 91% | 1013.6 hPa | 1.02 mm | - | - | - |
| 1778021405 | 3.33° C | 91% | 1013.1 hPa | 1.02 mm | - | - | - |
| 1778019905 | 4.44° C | 92% | 1012.7 hPa | 0.51 mm | - | - | - |
| 1778018705 | 4.44° C | 92% | 1012.2 hPa | 0.76 mm | - | - | - |
| 1778017503 | 4.44° C | 92% | 1012.2 hPa | 0.76 mm | - | - | - |
| 1778011203 | 5° C | 94% | 1012.7 hPa | 0.25 mm | - | - | - |
| 1778010303 | 4.44° C | 94% | 1012.5 hPa | 0 mm | - | - | - |
| 1778010003 | 4.44° C | 94% | 1012.5 hPa | 0 mm | - | - | - |
| 1778009103 | 4.44° C | 94% | 1012.4 hPa | 0 mm | - | - | - |
| 1778005204 | 3.89° C | 94% | 1012.8 hPa | 0.25 mm | - | - | - |
| 1778004304 | 3.89° C | 94% | 1012.9 hPa | 0.25 mm | - | - | - |
| 1778001604 | 3.33° C | 94% | 1012.8 hPa | 0 mm | - | - | - |
| 1777999804 | 3.33° C | 94% | 1012.9 hPa | 0.25 mm | - | - | - |
| 1777998904 | 3.33° C | 94% | 1012.9 hPa | 0.25 mm | - | - | - |
| 1777998604 | 3.33° C | 94% | 1012.9 hPa | 0.25 mm | - | - | - |
| 1777995604 | 2.78° C | 94% | 1012.8 hPa | 0.25 mm | - | - | - |
| 1777994103 | 2.78° C | 94% | 1012.6 hPa | 0.25 mm | - | - | - |
| 1777992903 | 2.78° C | 94% | 1012.5 hPa | 0.25 mm | - | - | - |
| 1777990504 | 2.22° C | 93% | 1012.4 hPa | 0.25 mm | - | - | - |
| 1777989603 | 2.22° C | 93% | 1012.2 hPa | 0.25 mm | - | - | - |
* Rain latest hour (hover to see other rain measurements)
** Current wind speed in m/s (hover to see current wind gust speed)